Time,TemperatureF,DewpointF,PressureIn,WindDirection,WindDirectionDegrees,WindSpeedMPH,WindSpeedGustMPH,Humidity,HourlyPrecipIn,Conditions,Clouds,dailyrainin,SoftwareType,DateUTC
2013-01-20 00:00:00,27.2,20.3,30.38,SSE,153,0.0,1.0,75,0.00,,,0.00,Wunderground v.1.15,2013-01-20 08:00:00,
2013-01-20 00:05:00,27.3,20.4,30.38,SSE,153,0.0,1.0,75,0.00,,,0.00,Wunderground v.1.15,2013-01-20 08:05:00,
2013-01-20 00:09:00,27.3,20.4,30.38,SSE,153,0.0,1.0,75,0.00,,,0.00,Wunderground v.1.15,2013-01-20 08:09:00,
2013-01-20 00:15:00,27.2,20.3,30.38,SSE,166,0.0,1.0,75,0.00,,,0.00,Wunderground v.1.15,2013-01-20 08:15:00,
2013-01-20 00:20:00,27.1,20.2,30.38,SSE,165,0.0,1.0,75,0.00,,,0.00,Wunderground v.1.15,2013-01-20 08:20:00,
2013-01-20 00:25:00,27.1,20.2,30.38,SSE,168,0.0,1.0,75,0.00,,,0.00,Wunderground v.1.15,2013-01-20 08:25:00,
2013-01-20 00:30:00,27.1,20.2,30.38,SSE,167,0.0,1.0,75,0.00,,,0.00,Wunderground v.1.15,2013-01-20 08:30:00,
2013-01-20 00:34:00,27.1,20.2,30.39,WSW,250,0.0,1.0,75,0.00,,,0.00,Wunderground v.1.15,2013-01-20 08:34:00,
2013-01-20 00:39:00,27.1,20.2,30.39,SW,229,0.0,1.0,75,0.00,,,0.00,Wunderground v.1.15,2013-01-20 08:39:00,
2013-01-20 00:45:00,27.1,20.2,30.38,ESE,120,0.0,1.0,75,0.00,,,0.00,Wunderground v.1.15,2013-01-20 08:45:00,
2013-01-20 00:50:00,27.1,20.2,30.38,ESE,120,0.0,1.0,75,0.00,,,0.00,Wunderground v.1.15,2013-01-20 08:50:00,
2013-01-20 00:55:00,27.1,20.2,30.38,ESE,120,0.0,1.0,75,0.00,,,0.00,Wunderground v.1.15,2013-01-20 08:55:00,
2013-01-20 00:59:00,27.0,20.1,30.38,ESE,120,0.0,1.0,75,0.00,,,0.00,Wunderground v.1.15,2013-01-20 08:59:00,
2013-01-20 01:04:00,26.9,20.3,30.39,ESE,120,0.0,1.0,76,0.00,,,0.00,Wunderground v.1.15,2013-01-20 09:04:00,
2013-01-20 01:10:00,26.7,20.1,30.38,ESE,120,0.0,1.0,76,0.00,,,0.00,Wunderground v.1.15,2013-01-20 09:10:00,
2013-01-20 01:15:00,26.7,20.1,30.38,ESE,120,0.0,1.0,76,0.00,,,0.00,Wunderground v.1.15,2013-01-20 09:15:00,
2013-01-20 01:20:00,26.6,20.1,30.39,ESE,120,0.0,1.0,76,0.00,,,0.00,Wunderground v.1.15,2013-01-20 09:20:00,
2013-01-20 01:29:00,26.5,20.0,30.39,ESE,120,0.0,1.0,76,0.00,,,0.00,Wunderground v.1.15,2013-01-20 09:29:00,
2013-01-20 01:35:00,26.4,19.9,30.39,ESE,120,0.0,1.0,76,0.00,,,0.00,Wunderground v.1.15,2013-01-20 09:35:00,
2013-01-20 01:40:00,26.2,19.7,30.39,SSE,153,0.0,1.0,76,0.00,,,0.00,Wunderground v.1.15,2013-01-20 09:40:00,
2013-01-20 01:45:00,26.2,19.7,30.39,SW,217,1.0,1.0,76,0.00,,,0.00,Wunderground v.1.15,2013-01-20 09:45:00,
2013-01-20 01:49:00,26.2,19.7,30.39,SW,217,0.0,1.0,76,0.00,,,0.00,Wunderground v.1.15,2013-01-20 09:49:00,
2013-01-20 01:54:00,26.2,19.7,30.40,SW,217,0.0,1.0,76,0.00,,,0.00,Wunderground v.1.15,2013-01-20 09:54:00,
2013-01-20 02:00:00,26.2,19.7,30.40,SW,217,0.0,1.0,76,0.00,,,0.00,Wunderground v.1.15,2013-01-20 10:00:00,
2013-01-20 02:05:00,26.2,19.7,30.40,SW,217,0.0,1.0,76,0.00,,,0.00,Wunderground v.1.15,2013-01-20 10:05:00,
2013-01-20 02:10:00,26.0,19.8,30.40,SW,217,0.0,1.0,77,0.00,,,0.00,Wunderground v.1.15,2013-01-20 10:10:00,
2013-01-20 02:19:00,25.8,19.6,30.40,SW,217,0.0,1.0,77,0.00,,,0.00,Wunderground v.1.15,2013-01-20 10:19:00,
2013-01-20 02:24:00,25.6,19.4,30.40,SW,217,0.0,1.0,77,0.00,,,0.00,Wunderground v.1.15,2013-01-20 10:24:00,
2013-01-20 02:30:00,25.6,19.4,30.40,SW,217,0.0,1.0,77,0.00,,,0.00,Wunderground v.1.15,2013-01-20 10:30:00,
2013-01-20 02:35:00,25.5,19.3,30.40,SW,217,0.0,1.0,77,0.00,,,0.00,Wunderground v.1.15,2013-01-20 10:35:00,
2013-01-20 02:40:00,25.4,19.2,30.40,SW,217,0.0,1.0,77,0.00,,,0.00,Wunderground v.1.15,2013-01-20 10:40:00,
2013-01-20 02:50:00,25.3,19.1,30.39,ESE,110,0.0,1.0,77,0.00,,,0.00,Wunderground v.1.15,2013-01-20 10:50:00,
2013-01-20 02:55:00,25.2,19.3,30.39,ESE,110,0.0,1.0,78,0.00,,,0.00,Wunderground v.1.15,2013-01-20 10:55:00,
2013-01-20 03:00:00,25.1,19.2,30.39,SE,131,0.0,1.0,78,0.00,,,0.00,Wunderground v.1.15,2013-01-20 11:00:00,
2013-01-20 03:05:00,24.9,19.0,30.39,SE,129,0.0,1.0,78,0.00,,,0.00,Wunderground v.1.15,2013-01-20 11:05:00,
2013-01-20 03:14:00,24.6,18.7,30.39,SE,130,0.0,1.0,78,0.00,,,0.00,Wunderground v.1.15,2013-01-20 11:14:00,
2013-01-20 03:20:00,24.6,18.7,30.39,SE,129,0.0,1.0,78,0.00,,,0.00,Wunderground v.1.15,2013-01-20 11:20:00,
2013-01-20 03:25:00,24.5,18.6,30.39,SE,129,0.0,1.0,78,0.00,,,0.00,Wunderground v.1.15,2013-01-20 11:25:00,
2013-01-20 03:30:00,24.5,18.6,30.39,SE,129,0.0,1.0,78,0.00,,,0.00,Wunderground v.1.15,2013-01-20 11:30:00,
2013-01-20 03:35:00,24.4,18.5,30.39,SE,129,0.0,1.0,78,0.00,,,0.00,Wunderground v.1.15,2013-01-20 11:35:00,
2013-01-20 03:44:00,24.4,18.5,30.39,SE,131,0.0,1.0,78,0.00,,,0.00,Wunderground v.1.15,2013-01-20 11:44:00,
2013-01-20 03:50:00,24.3,18.4,30.39,SE,131,0.0,1.0,78,0.00,,,0.00,Wunderground v.1.15,2013-01-20 11:50:00,
2013-01-20 03:55:00,24.3,18.4,30.39,SE,131,0.0,1.0,78,0.00,,,0.00,Wunderground v.1.15,2013-01-20 11:55:00,
2013-01-20 04:00:00,24.4,18.5,30.39,SE,131,0.0,1.0,78,0.00,,,0.00,Wunderground v.1.15,2013-01-20 12:00:00,
2013-01-20 04:09:00,24.2,18.6,30.39,SE,131,0.0,1.0,79,0.00,,,0.00,Wunderground v.1.15,2013-01-20 12:09:00,
2013-01-20 04:15:00,24.0,18.4,30.39,SSE,150,0.0,1.0,79,0.00,,,0.00,Wunderground v.1.15,2013-01-20 12:15:00,
2013-01-20 04:20:00,23.9,18.3,30.39,SSE,149,0.0,1.0,79,0.00,,,0.00,Wunderground v.1.15,2013-01-20 12:20:00,
2013-01-20 04:25:00,23.8,18.2,30.39,SSE,149,0.0,1.0,79,0.00,,,0.00,Wunderground v.1.15,2013-01-20 12:25:00,
2013-01-20 04:29:00,23.9,18.3,30.39,SSE,149,0.0,1.0,79,0.00,,,0.00,Wunderground v.1.15,2013-01-20 12:29:00,
2013-01-20 04:35:00,23.9,18.3,30.39,SSE,149,0.0,1.0,79,0.00,,,0.00,Wunderground v.1.15,2013-01-20 12:35:00,
2013-01-20 04:40:00,23.8,18.2,30.39,SSE,150,0.0,1.0,79,0.00,,,0.00,Wunderground v.1.15,2013-01-20 12:40:00,
2013-01-20 04:45:00,24.0,18.1,30.39,SSE,149,0.0,1.0,78,0.00,,,0.00,Wunderground v.1.15,2013-01-20 12:45:00,
2013-01-20 04:50:00,23.9,18.0,30.39,SSE,149,0.0,1.0,78,0.00,,,0.00,Wunderground v.1.15,2013-01-20 12:50:00,
2013-01-20 04:54:00,23.9,18.3,30.39,SW,217,0.0,1.0,79,0.00,,,0.00,Wunderground v.1.15,2013-01-20 12:54:00,
2013-01-20 04:59:00,23.9,18.3,30.39,SW,217,0.0,1.0,79,0.00,,,0.00,Wunderground v.1.15,2013-01-20 12:59:00,
2013-01-20 05:05:00,23.9,18.3,30.38,East,98,0.0,1.0,79,0.00,,,0.00,Wunderground v.1.15,2013-01-20 13:05:00,
2013-01-20 05:10:00,23.8,18.2,30.39,ESE,118,0.0,1.0,79,0.00,,,0.00,Wunderground v.1.15,2013-01-20 13:10:00,
2013-01-20 05:15:00,23.7,18.4,30.39,ESE,119,0.0,1.0,80,0.00,,,0.00,Wunderground v.1.15,2013-01-20 13:15:00,
2013-01-20 05:20:00,23.5,18.2,30.39,ESE,118,0.0,1.0,80,0.00,,,0.00,Wunderground v.1.15,2013-01-20 13:20:00,
2013-01-20 05:29:00,23.5,17.9,30.39,SSE,152,0.0,1.0,79,0.00,,,0.00,Wunderground v.1.15,2013-01-20 13:29:00,
2013-01-20 05:35:00,23.5,17.9,30.39,WSW,238,0.0,1.0,79,0.00,,,0.00,Wunderground v.1.15,2013-01-20 13:35:00,
2013-01-20 05:40:00,23.6,18.0,30.39,WSW,237,0.0,1.0,79,0.00,,,0.00,Wunderground v.1.15,2013-01-20 13:40:00,
2013-01-20 05:44:00,23.5,18.2,30.38,WSW,238,0.0,1.0,80,0.00,,,0.00,Wunderground v.1.15,2013-01-20 13:44:00,
2013-01-20 05:50:00,23.4,18.1,30.38,SE,131,0.0,1.0,80,0.00,,,0.00,Wunderground v.1.15,2013-01-20 13:50:00,
2013-01-20 05:55:00,23.4,18.1,30.38,SE,131,0.0,1.0,80,0.00,,,0.00,Wunderground v.1.15,2013-01-20 13:55:00,
2013-01-20 06:00:00,23.4,18.1,30.38,NW,316,0.0,1.0,80,0.00,,,0.00,Wunderground v.1.15,2013-01-20 14:00:00,
2013-01-20 06:05:00,23.3,18.0,30.38,East,90,0.0,1.0,80,0.00,,,0.00,Wunderground v.1.15,2013-01-20 14:05:00,
2013-01-20 06:09:00,23.1,18.1,30.38,East,91,0.0,1.0,81,0.00,,,0.00,Wunderground v.1.15,2013-01-20 14:09:00,
2013-01-20 06:15:00,22.8,18.1,30.38,NE,39,0.0,1.0,82,0.00,,,0.00,Wunderground v.1.15,2013-01-20 14:15:00,
2013-01-20 06:20:00,22.7,17.7,30.38,NE,38,0.0,1.0,81,0.00,,,0.00,Wunderground v.1.15,2013-01-20 14:20:00,
2013-01-20 06:25:00,22.5,17.8,30.38,NE,41,0.0,1.0,82,0.00,,,0.00,Wunderground v.1.15,2013-01-20 14:25:00,
2013-01-20 06:30:00,22.4,17.7,30.38,NE,41,0.0,1.0,82,0.00,,,0.00,Wunderground v.1.15,2013-01-20 14:30:00,
2013-01-20 06:40:00,22.2,17.3,30.37,NE,41,0.0,1.0,81,0.00,,,0.00,Wunderground v.1.15,2013-01-20 14:40:00,
2013-01-20 06:45:00,22.0,17.1,30.37,ENE,72,0.0,1.0,81,0.00,,,0.00,Wunderground v.1.15,2013-01-20 14:45:00,
2013-01-20 06:50:00,22.3,17.4,30.37,ENE,72,0.0,1.0,81,0.00,,,0.00,Wunderground v.1.15,2013-01-20 14:50:00,
2013-01-20 06:54:00,22.4,17.2,30.37,ENE,72,0.0,1.0,80,0.00,,,0.00,Wunderground v.1.15,2013-01-20 14:54:00,
2013-01-20 06:59:00,22.4,17.2,30.37,ENE,72,0.0,1.0,80,0.00,,,0.00,Wunderground v.1.15,2013-01-20 14:59:00,
2013-01-20 07:04:00,22.3,17.4,30.37,ENE,72,0.0,1.0,81,0.00,,,0.00,Wunderground v.1.15,2013-01-20 15:04:00,
2013-01-20 07:10:00,22.2,17.3,30.37,ENE,72,0.0,1.0,81,0.00,,,0.00,Wunderground v.1.15,2013-01-20 15:10:00,
2013-01-20 07:15:00,22.1,17.2,30.37,ENE,72,0.0,1.0,81,0.00,,,0.00,Wunderground v.1.15,2013-01-20 15:15:00,
2013-01-20 07:20:00,22.1,17.2,30.38,ENE,72,0.0,1.0,81,0.00,,,0.00,Wunderground v.1.15,2013-01-20 15:20:00,
2013-01-20 07:24:00,22.0,17.1,30.38,ENE,72,0.0,1.0,81,0.00,,,0.00,Wunderground v.1.15,2013-01-20 15:24:00,
2013-01-20 07:30:00,22.0,17.1,30.38,ENE,72,0.0,1.0,81,0.00,,,0.00,Wunderground v.1.15,2013-01-20 15:30:00,
2013-01-20 07:35:00,22.0,17.1,30.38,ENE,72,0.0,1.0,81,0.00,,,0.00,Wunderground v.1.15,2013-01-20 15:35:00,
2013-01-20 07:40:00,22.1,17.2,30.38,ENE,72,0.0,1.0,81,0.00,,,0.00,Wunderground v.1.15,2013-01-20 15:40:00,
2013-01-20 07:45:00,22.3,17.4,30.38,ENE,72,0.0,1.0,81,0.00,,,0.00,Wunderground v.1.15,2013-01-20 15:45:00,
2013-01-20 07:54:00,22.5,17.3,30.37,NW,316,0.0,1.0,80,0.00,,,0.00,Wunderground v.1.15,2013-01-20 15:54:00,
2013-01-20 08:00:00,22.4,17.5,30.37,NE,42,0.0,1.0,81,0.00,,,0.00,Wunderground v.1.15,2013-01-20 16:00:00,
2013-01-20 08:05:00,22.5,17.5,30.38,WNW,291,0.0,1.0,81,0.00,,,0.00,Wunderground v.1.15,2013-01-20 16:05:00,
2013-01-20 08:10:00,22.5,17.5,30.38,WNW,291,0.0,1.0,81,0.00,,,0.00,Wunderground v.1.15,2013-01-20 16:10:00,
2013-01-20 08:14:00,22.6,17.6,30.38,NE,55,0.0,1.0,81,0.00,,,0.00,Wunderground v.1.15,2013-01-20 16:14:00,
2013-01-20 08:19:00,22.6,17.6,30.38,NNE,15,0.0,1.0,81,0.00,,,0.00,Wunderground v.1.15,2013-01-20 16:19:00,
2013-01-20 08:25:00,22.6,17.6,30.38,NNE,15,0.0,1.0,81,0.00,,,0.00,Wunderground v.1.15,2013-01-20 16:25:00,
2013-01-20 08:30:00,22.5,17.8,30.38,NNE,15,0.0,1.0,82,0.00,,,0.00,Wunderground v.1.15,2013-01-20 16:30:00,
2013-01-20 08:35:00,22.5,17.5,30.38,SSE,163,0.0,1.0,81,0.00,,,0.00,Wunderground v.1.15,2013-01-20 16:35:00,
2013-01-20 08:39:00,22.8,17.6,30.38,SSE,155,0.0,1.0,80,0.00,,,0.00,Wunderground v.1.15,2013-01-20 16:39:00,
2013-01-20 08:44:00,23.3,18.0,30.38,SSE,155,0.0,1.0,80,0.00,,,0.00,Wunderground v.1.15,2013-01-20 16:44:00,
2013-01-20 08:50:00,23.9,18.0,30.38,SSE,155,0.0,1.0,78,0.00,,,0.00,Wunderground v.1.15,2013-01-20 16:50:00,
2013-01-20 08:55:00,24.3,18.4,30.38,SSE,152,0.0,1.0,78,0.00,,,0.00,Wunderground v.1.15,2013-01-20 16:55:00,
2013-01-20 09:00:00,24.5,18.6,30.39,SSE,151,0.0,1.0,78,0.00,,,0.00,Wunderground v.1.15,2013-01-20 17:00:00,
2013-01-20 09:04:00,24.9,19.0,30.39,SSE,150,0.0,1.0,78,0.00,,,0.00,Wunderground v.1.15,2013-01-20 17:04:00,
2013-01-20 09:09:00,25.6,19.4,30.39,SE,141,0.0,1.0,77,0.00,,,0.00,Wunderground v.1.15,2013-01-20 17:09:00,
2013-01-20 09:15:00,26.0,19.8,30.39,SW,222,0.0,1.0,77,0.00,,,0.00,Wunderground v.1.15,2013-01-20 17:15:00,
2013-01-20 09:20:00,26.3,20.1,30.39,South,173,1.0,1.0,77,0.00,,,0.00,Wunderground v.1.15,2013-01-20 17:20:00,
2013-01-20 09:25:00,26.6,20.4,30.39,SSW,211,1.0,1.0,77,0.00,,,0.00,Wunderground v.1.15,2013-01-20 17:25:00,
2013-01-20 09:30:00,26.9,21.0,30.39,SSW,205,1.0,1.0,78,0.00,,,0.00,Wunderground v.1.15,2013-01-20 17:30:00,
2013-01-20 09:34:00,27.1,21.2,30.39,SE,129,1.0,1.0,78,0.00,,,0.00,Wunderground v.1.15,2013-01-20 17:34:00,
2013-01-20 09:40:00,27.4,21.1,30.39,SE,134,1.0,1.0,77,0.00,,,0.00,Wunderground v.1.15,2013-01-20 17:40:00,
2013-01-20 09:45:00,28.0,21.1,30.39,SSE,152,0.0,1.0,75,0.00,,,0.00,Wunderground v.1.15,2013-01-20 17:45:00,
2013-01-20 09:50:00,28.5,21.6,30.39,SSW,193,0.0,1.0,75,0.00,,,0.00,Wunderground v.1.15,2013-01-20 17:50:00,
2013-01-20 09:54:00,28.8,21.9,30.39,SE,146,0.0,1.0,75,0.00,,,0.00,Wunderground v.1.15,2013-01-20 17:54:00,
2013-01-20 09:59:00,28.9,22.0,30.39,SSE,156,1.0,1.0,75,0.00,,,0.00,Wunderground v.1.15,2013-01-20 17:59:00,
2013-01-20 10:04:00,29.1,22.2,30.39,South,186,1.0,1.0,75,0.00,,,0.00,Wunderground v.1.15,2013-01-20 18:04:00,
2013-01-20 10:10:00,29.2,22.6,30.39,South,174,1.0,1.0,76,0.00,,,0.00,Wunderground v.1.15,2013-01-20 18:10:00,
2013-01-20 10:15:00,29.4,22.8,30.39,SE,146,1.0,1.0,76,0.00,,,0.00,Wunderground v.1.15,2013-01-20 18:15:00,
2013-01-20 10:24:00,29.9,22.6,30.39,SSE,152,0.0,1.0,74,0.00,,,0.00,Wunderground v.1.15,2013-01-20 18:24:00,
2013-01-20 10:30:00,30.4,22.8,30.39,SSE,150,0.0,1.0,73,0.00,,,0.00,Wunderground v.1.15,2013-01-20 18:30:00,
2013-01-20 10:35:00,30.9,23.3,30.39,SSE,150,0.0,1.0,73,0.00,,,0.00,Wunderground v.1.15,2013-01-20 18:35:00,
2013-01-20 10:39:00,31.3,23.3,30.38,SSE,150,0.0,1.0,72,0.00,,,0.00,Wunderground v.1.15,2013-01-20 18:39:00,
2013-01-20 10:44:00,31.6,23.6,30.38,SSE,152,0.0,1.0,72,0.00,,,0.00,Wunderground v.1.15,2013-01-20 18:44:00,
2013-01-20 10:49:00,31.7,24.0,30.38,SW,228,0.0,1.0,73,0.00,,,0.00,Wunderground v.1.15,2013-01-20 18:49:00,
2013-01-20 10:55:00,31.9,24.2,30.38,West,262,0.0,1.0,73,0.00,,,0.00,Wunderground v.1.15,2013-01-20 18:55:00,
2013-01-20 11:00:00,31.8,24.1,30.38,SW,224,1.0,1.0,73,0.00,,,0.00,Wunderground v.1.15,2013-01-20 19:00:00,
2013-01-20 11:04:00,31.8,24.1,30.38,SW,228,1.0,1.0,73,0.00,,,0.00,Wunderground v.1.15,2013-01-20 19:04:00,
2013-01-20 11:09:00,31.8,24.5,30.38,WSW,253,1.0,1.0,74,0.00,,,0.00,Wunderground v.1.15,2013-01-20 19:09:00,
2013-01-20 11:15:00,31.8,24.5,30.38,SE,143,1.0,1.0,74,0.00,,,0.00,Wunderground v.1.15,2013-01-20 19:15:00,
2013-01-20 11:20:00,32.0,24.3,30.38,SE,135,1.0,1.0,73,0.00,,,0.00,Wunderground v.1.15,2013-01-20 19:20:00,
2013-01-20 11:25:00,32.2,24.5,30.38,SSE,151,1.0,1.0,73,0.00,,,0.00,Wunderground v.1.15,2013-01-20 19:25:00,
2013-01-20 11:29:00,32.4,24.4,30.38,SE,146,1.0,1.0,72,0.00,,,0.00,Wunderground v.1.15,2013-01-20 19:29:00,
2013-01-20 11:34:00,32.6,24.6,30.37,SE,139,1.0,1.0,72,0.00,,,0.00,Wunderground v.1.15,2013-01-20 19:34:00,
2013-01-20 11:40:00,32.8,24.8,30.37,SE,127,0.0,1.0,72,0.00,,,0.00,Wunderground v.1.15,2013-01-20 19:40:00,
2013-01-20 11:45:00,33.0,25.0,30.36,SE,128,1.0,1.0,72,0.00,,,0.00,Wunderground v.1.15,2013-01-20 19:45:00,
2013-01-20 11:54:00,33.9,25.5,30.36,SW,225,1.0,2.0,71,0.00,,,0.00,Wunderground v.1.15,2013-01-20 19:54:00,
2013-01-20 12:00:00,33.7,25.6,30.36,SSW,203,1.0,2.0,72,0.00,,,0.00,Wunderground v.1.15,2013-01-20 20:00:00,
2013-01-20 12:05:00,33.4,25.7,30.36,SSW,195,1.0,2.0,73,0.00,,,0.00,Wunderground v.1.15,2013-01-20 20:05:00,
2013-01-20 12:10:00,33.1,25.7,30.36,SW,229,1.0,1.0,74,0.00,,,0.00,Wunderground v.1.15,2013-01-20 20:10:00,
2013-01-20 12:14:00,33.2,25.5,30.35,South,190,1.0,2.0,73,0.00,,,0.00,Wunderground v.1.15,2013-01-20 20:14:00,
2013-01-20 12:19:00,33.2,25.1,30.35,SSE,148,1.0,1.0,72,0.00,,,0.00,Wunderground v.1.15,2013-01-20 20:19:00,
2013-01-20 12:25:00,33.5,25.4,30.35,SE,138,1.0,2.0,72,0.00,,,0.00,Wunderground v.1.15,2013-01-20 20:25:00,
2013-01-20 12:30:00,33.5,25.4,30.35,SE,130,1.0,1.0,72,0.00,,,0.00,Wunderground v.1.15,2013-01-20 20:30:00,
2013-01-20 12:35:00,33.7,25.3,30.34,South,173,1.0,1.0,71,0.00,,,0.00,Wunderground v.1.15,2013-01-20 20:35:00,
2013-01-20 12:44:00,34.0,25.6,30.34,WSW,248,1.0,1.0,71,0.00,,,0.00,Wunderground v.1.15,2013-01-20 20:44:00,
2013-01-20 12:50:00,34.1,25.7,30.34,WNW,283,1.0,1.0,71,0.00,,,0.00,Wunderground v.1.15,2013-01-20 20:50:00,
2013-01-20 12:55:00,34.6,26.2,30.34,WSW,245,1.0,1.0,71,0.00,,,0.00,Wunderground v.1.15,2013-01-20 20:55:00,
2013-01-20 13:00:00,34.5,26.1,30.33,SE,139,1.0,2.0,71,0.00,,,0.00,Wunderground v.1.15,2013-01-20 21:00:00,
2013-01-20 13:04:00,34.5,26.1,30.33,SW,223,1.0,2.0,71,0.00,,,0.00,Wunderground v.1.15,2013-01-20 21:04:00,
2013-01-20 13:09:00,34.8,26.4,30.33,SW,221,1.0,1.0,71,0.00,,,0.00,Wunderground v.1.15,2013-01-20 21:09:00,
2013-01-20 13:14:00,35.1,26.3,30.33,SSW,194,1.0,1.0,70,0.00,,,0.00,Wunderground v.1.15,2013-01-20 21:14:00,
2013-01-20 13:20:00,35.8,27.0,30.32,SSW,197,0.0,1.0,70,0.00,,,0.00,Wunderground v.1.15,2013-01-20 21:20:00,
2013-01-20 13:25:00,36.6,27.4,30.32,SSE,153,0.0,1.0,69,0.00,,,0.00,Wunderground v.1.15,2013-01-20 21:25:00,
2013-01-20 13:34:00,36.7,27.8,30.31,SSW,204,1.0,1.0,70,0.00,,,0.00,Wunderground v.1.15,2013-01-20 21:34:00,
2013-01-20 13:40:00,37.3,28.1,30.31,WSW,243,1.0,1.0,69,0.00,,,0.00,Wunderground v.1.15,2013-01-20 21:40:00,
2013-01-20 13:45:00,37.7,28.4,30.31,SW,233,1.0,1.0,69,0.00,,,0.00,Wunderground v.1.15,2013-01-20 21:45:00,
2013-01-20 13:50:00,38.2,28.9,30.31,WSW,241,1.0,1.0,69,0.00,,,0.00,Wunderground v.1.15,2013-01-20 21:50:00,
2013-01-20 13:54:00,38.4,29.1,30.31,SSW,207,1.0,1.0,69,0.00,,,0.00,Wunderground v.1.15,2013-01-20 21:54:00,
2013-01-20 13:59:00,38.8,29.1,30.31,SW,215,1.0,1.0,68,0.00,,,0.00,Wunderground v.1.15,2013-01-20 21:59:00,
2013-01-20 14:05:00,38.9,29.6,30.31,SW,219,1.0,1.0,69,0.00,,,0.00,Wunderground v.1.15,2013-01-20 22:05:00,
2013-01-20 14:10:00,39.1,29.8,30.31,South,170,1.0,2.0,69,0.00,,,0.00,Wunderground v.1.15,2013-01-20 22:10:00,
2013-01-20 14:15:00,39.1,30.1,30.30,SW,228,1.0,2.0,70,0.00,,,0.00,Wunderground v.1.15,2013-01-20 22:15:00,
2013-01-20 14:20:00,39.2,30.6,30.30,WSW,250,1.0,1.0,71,0.00,,,0.00,Wunderground v.1.15,2013-01-20 22:20:00,
2013-01-20 14:24:00,39.1,30.8,30.30,WSW,253,1.0,1.0,72,0.00,,,0.01,Wunderground v.1.15,2013-01-20 22:24:00,
2013-01-20 14:29:00,39.1,31.2,30.30,WSW,245,1.0,1.0,73,0.00,,,0.01,Wunderground v.1.15,2013-01-20 22:29:00,
2013-01-20 14:35:00,39.5,30.9,30.30,SW,214,1.0,1.0,71,0.00,,,0.01,Wunderground v.1.15,2013-01-20 22:35:00,
2013-01-20 14:40:00,40.2,30.5,30.30,South,187,1.0,1.0,68,0.00,,,0.01,Wunderground v.1.15,2013-01-20 22:40:00,
2013-01-20 14:45:00,40.4,30.3,30.30,SSE,166,1.0,1.0,67,0.00,,,0.01,Wunderground v.1.15,2013-01-20 22:45:00,
2013-01-20 14:49:00,40.6,31.2,30.30,SW,228,1.0,1.0,69,0.00,,,0.01,Wunderground v.1.15,2013-01-20 22:49:00,
2013-01-20 14:54:00,40.8,31.8,30.30,SW,217,1.0,1.0,70,0.00,,,0.01,Wunderground v.1.15,2013-01-20 22:54:00,
2013-01-20 15:00:00,41.0,32.3,30.30,SSW,207,0.0,1.0,71,0.00,,,0.01,Wunderground v.1.15,2013-01-20 23:00:00,
2013-01-20 15:05:00,41.1,33.1,30.29,SSW,205,0.0,1.0,73,0.00,,,0.01,Wunderground v.1.15,2013-01-20 23:05:00,
2013-01-20 15:10:00,40.7,33.7,30.29,SW,226,0.0,1.0,76,0.00,,,0.01,Wunderground v.1.15,2013-01-20 23:10:00,
2013-01-20 15:19:00,40.1,33.1,30.30,SW,219,1.0,1.0,76,0.00,,,0.01,Wunderground v.1.15,2013-01-20 23:19:00,
2013-01-20 15:25:00,39.5,32.9,30.30,South,190,1.0,2.0,77,0.00,,,0.01,Wunderground v.1.15,2013-01-20 23:25:00,
2013-01-20 15:30:00,38.9,32.6,30.30,SSW,208,2.0,3.0,78,0.00,,,0.01,Wunderground v.1.15,2013-01-20 23:30:00,
2013-01-20 15:35:00,38.3,31.7,30.30,SW,221,2.0,3.0,77,0.00,,,0.01,Wunderground v.1.15,2013-01-20 23:35:00,
2013-01-20 15:40:00,37.5,31.9,30.30,SW,214,2.0,2.0,80,0.00,,,0.01,Wunderground v.1.15,2013-01-20 23:40:00,
2013-01-20 15:50:00,36.2,30.3,30.30,South,190,1.0,1.0,79,0.00,,,0.01,Wunderground v.1.15,2013-01-20 23:50:00,
2013-01-20 15:55:00,35.7,29.2,30.30,South,172,1.0,1.0,77,0.00,,,0.01,Wunderground v.1.15,2013-01-20 23:55:00,
2013-01-20 16:04:00,34.7,27.9,30.30,SSW,198,1.0,2.0,76,0.00,,,0.01,Wunderground v.1.15,2013-01-21 00:04:00,
2013-01-20 16:09:00,34.3,27.2,30.30,SSW,205,1.0,1.0,75,0.00,,,0.01,Wunderground v.1.15,2013-01-21 00:09:00,
2013-01-20 16:15:00,33.9,26.8,30.30,SSW,205,0.0,1.0,75,0.00,,,0.01,Wunderground v.1.15,2013-01-21 00:15:00,
2013-01-20 16:20:00,33.6,26.2,30.30,SW,215,0.0,1.0,74,0.00,,,0.01,Wunderground v.1.15,2013-01-21 00:20:00,
2013-01-20 16:25:00,33.2,25.8,30.30,SW,224,0.0,1.0,74,0.00,,,0.01,Wunderground v.1.15,2013-01-21 00:25:00,
2013-01-20 16:34:00,32.7,25.0,30.30,SW,225,0.0,1.0,73,0.00,,,0.01,Wunderground v.1.15,2013-01-21 00:34:00,
2013-01-20 16:40:00,32.5,24.8,30.29,SW,225,0.0,1.0,73,0.00,,,0.01,Wunderground v.1.15,2013-01-21 00:40:00,
2013-01-20 16:45:00,32.3,24.6,30.29,SW,224,0.0,1.0,73,0.00,,,0.01,Wunderground v.1.15,2013-01-21 00:45:00,
2013-01-20 16:50:00,32.0,24.3,30.29,SW,225,0.0,1.0,73,0.00,,,0.01,Wunderground v.1.15,2013-01-21 00:50:00,
2013-01-20 16:55:00,31.5,23.8,30.29,SW,225,0.0,1.0,73,0.00,,,0.01,Wunderground v.1.15,2013-01-21 00:55:00,
2013-01-20 16:59:00,31.3,23.6,30.29,SE,129,0.0,1.0,73,0.00,,,0.01,Wunderground v.1.15,2013-01-21 00:59:00,
2013-01-20 17:04:00,31.0,23.4,30.29,SE,128,0.0,1.0,73,0.00,,,0.01,Wunderground v.1.15,2013-01-21 01:04:00,
2013-01-20 17:10:00,30.7,23.1,30.29,SE,128,0.0,1.0,73,0.00,,,0.01,Wunderground v.1.15,2013-01-21 01:10:00,
2013-01-20 17:15:00,30.3,23.0,30.29,SE,128,0.0,1.0,74,0.00,,,0.01,Wunderground v.1.15,2013-01-21 01:15:00,
2013-01-20 17:20:00,30.0,22.7,30.28,SE,129,0.0,1.0,74,0.00,,,0.01,Wunderground v.1.15,2013-01-21 01:20:00,
2013-01-20 17:24:00,29.7,22.4,30.28,SE,129,0.0,1.0,74,0.00,,,0.01,Wunderground v.1.15,2013-01-21 01:24:00,
2013-01-20 17:29:00,29.6,22.3,30.28,SE,129,0.0,1.0,74,0.00,,,0.01,Wunderground v.1.15,2013-01-21 01:29:00,
2013-01-20 17:35:00,29.4,21.8,30.28,SE,128,0.0,1.0,73,0.00,,,0.01,Wunderground v.1.15,2013-01-21 01:35:00,
2013-01-20 17:40:00,29.6,22.0,30.29,SE,128,0.0,1.0,73,0.00,,,0.01,Wunderground v.1.15,2013-01-21 01:40:00,
2013-01-20 17:45:00,29.8,22.2,30.28,SE,128,0.0,1.0,73,0.00,,,0.01,Wunderground v.1.15,2013-01-21 01:45:00,
2013-01-20 17:54:00,29.3,21.7,30.28,SE,129,0.0,1.0,73,0.00,,,0.01,Wunderground v.1.15,2013-01-21 01:54:00,
2013-01-20 17:59:00,29.1,21.8,30.28,SE,128,0.0,1.0,74,0.00,,,0.01,Wunderground v.1.15,2013-01-21 01:59:00,
2013-01-20 18:05:00,28.9,21.7,30.28,SE,129,0.0,1.0,74,0.00,,,0.01,Wunderground v.1.15,2013-01-21 02:05:00,
2013-01-20 18:10:00,28.9,21.7,30.28,SE,129,0.0,1.0,74,0.00,,,0.01,Wunderground v.1.15,2013-01-21 02:10:00,
2013-01-20 18:20:00,28.7,21.5,30.28,SE,129,0.0,1.0,74,0.00,,,0.01,Wunderground v.1.15,2013-01-21 02:20:00,
2013-01-20 18:25:00,28.6,21.4,30.27,SE,129,0.0,1.0,74,0.00,,,0.01,Wunderground v.1.15,2013-01-21 02:25:00,
2013-01-20 18:30:00,28.7,21.5,30.27,SE,129,0.0,1.0,74,0.00,,,0.01,Wunderground v.1.15,2013-01-21 02:30:00,
2013-01-20 18:35:00,28.8,21.6,30.27,SE,129,0.0,1.0,74,0.00,,,0.01,Wunderground v.1.15,2013-01-21 02:35:00,
2013-01-20 18:39:00,28.9,21.7,30.27,SE,128,0.0,1.0,74,0.00,,,0.01,Wunderground v.1.15,2013-01-21 02:39:00,
2013-01-20 18:44:00,29.0,21.7,30.27,WSW,249,0.0,1.0,74,0.00,,,0.01,Wunderground v.1.15,2013-01-21 02:44:00,
2013-01-20 18:50:00,29.0,21.7,30.27,WSW,249,0.0,1.0,74,0.00,,,0.01,Wunderground v.1.15,2013-01-21 02:50:00,
2013-01-20 18:55:00,29.0,21.7,30.27,WSW,249,0.0,1.0,74,0.00,,,0.01,Wunderground v.1.15,2013-01-21 02:55:00,
2013-01-20 19:00:00,29.0,22.1,30.27,SW,226,0.0,1.0,75,0.00,,,0.01,Wunderground v.1.15,2013-01-21 03:00:00,
2013-01-20 19:04:00,28.8,21.9,30.27,SSW,209,0.0,1.0,75,0.00,,,0.01,Wunderground v.1.15,2013-01-21 03:04:00,
2013-01-20 19:09:00,28.7,21.8,30.28,SSW,208,0.0,1.0,75,0.00,,,0.01,Wunderground v.1.15,2013-01-21 03:09:00,
2013-01-20 19:15:00,28.6,21.7,30.27,SSW,208,0.0,1.0,75,0.00,,,0.01,Wunderground v.1.15,2013-01-21 03:15:00,
2013-01-20 19:20:00,28.5,21.6,30.27,SSW,209,0.0,1.0,75,0.00,,,0.01,Wunderground v.1.15,2013-01-21 03:20:00,
2013-01-20 19:25:00,28.4,21.5,30.27,SSW,208,0.0,1.0,75,0.00,,,0.01,Wunderground v.1.15,2013-01-21 03:25:00,
2013-01-20 19:29:00,28.3,21.4,30.28,SSW,208,0.0,1.0,75,0.00,,,0.01,Wunderground v.1.15,2013-01-21 03:29:00,
2013-01-20 19:34:00,28.1,21.2,30.28,SSW,209,0.0,1.0,75,0.00,,,0.01,Wunderground v.1.15,2013-01-21 03:34:00,
2013-01-20 19:40:00,28.0,21.1,30.28,ENE,64,0.0,1.0,75,0.00,,,0.01,Wunderground v.1.15,2013-01-21 03:40:00,
2013-01-20 19:45:00,28.1,21.2,30.28,ENE,68,0.0,1.0,75,0.00,,,0.01,Wunderground v.1.15,2013-01-21 03:45:00,
2013-01-20 19:50:00,28.0,21.1,30.28,ENE,68,0.0,1.0,75,0.00,,,0.01,Wunderground v.1.15,2013-01-21 03:50:00,
2013-01-20 19:54:00,27.8,20.9,30.28,ENE,68,0.0,1.0,75,0.00,,,0.01,Wunderground v.1.15,2013-01-21 03:54:00,
2013-01-20 19:59:00,27.7,20.8,30.28,ENE,68,0.0,1.0,75,0.00,,,0.01,Wunderground v.1.15,2013-01-21 03:59:00,
2013-01-20 20:05:00,27.7,20.8,30.27,ENE,68,0.0,1.0,75,0.00,,,0.01,Wunderground v.1.15,2013-01-21 04:05:00,
2013-01-20 20:10:00,27.6,20.7,30.27,ENE,68,0.0,1.0,75,0.00,,,0.01,Wunderground v.1.15,2013-01-21 04:10:00,
2013-01-20 20:15:00,27.5,20.6,30.27,ENE,68,0.0,1.0,75,0.00,,,0.01,Wunderground v.1.15,2013-01-21 04:15:00,
2013-01-20 20:20:00,27.3,20.4,30.27,ENE,68,0.0,1.0,75,0.00,,,0.01,Wunderground v.1.15,2013-01-21 04:20:00,
2013-01-20 20:29:00,27.1,20.2,30.27,ESE,117,0.0,1.0,75,0.00,,,0.01,Wunderground v.1.15,2013-01-21 04:29:00,
2013-01-20 20:35:00,27.1,20.2,30.27,ESE,117,0.0,1.0,75,0.00,,,0.01,Wunderground v.1.15,2013-01-21 04:35:00,
2013-01-20 20:40:00,27.0,20.1,30.27,ESE,118,0.0,1.0,75,0.00,,,0.01,Wunderground v.1.15,2013-01-21 04:40:00,
2013-01-20 20:44:00,26.9,20.0,30.27,ESE,118,0.0,1.0,75,0.00,,,0.01,Wunderground v.1.15,2013-01-21 04:44:00,
2013-01-20 20:49:00,26.9,20.0,30.27,SSW,211,0.0,1.0,75,0.00,,,0.01,Wunderground v.1.15,2013-01-21 04:49:00,
2013-01-20 20:54:00,26.8,19.9,30.27,SE,141,1.0,1.0,75,0.00,,,0.01,Wunderground v.1.15,2013-01-21 04:54:00,
2013-01-20 21:05:00,26.7,19.8,30.27,SE,141,0.0,1.0,75,0.00,,,0.01,Wunderground v.1.15,2013-01-21 05:05:00,
2013-01-20 21:09:00,26.7,19.8,30.27,SE,142,0.0,1.0,75,0.00,,,0.01,Wunderground v.1.15,2013-01-21 05:09:00,
2013-01-20 21:14:00,26.7,19.8,30.27,SE,142,0.0,1.0,75,0.00,,,0.01,Wunderground v.1.15,2013-01-21 05:14:00,
2013-01-20 21:20:00,26.6,19.7,30.27,SE,141,0.0,1.0,75,0.00,,,0.01,Wunderground v.1.15,2013-01-21 05:20:00,
2013-01-20 21:25:00,26.7,19.8,30.27,ENE,59,0.0,1.0,75,0.00,,,0.01,Wunderground v.1.15,2013-01-21 05:25:00,
2013-01-20 21:34:00,26.6,19.7,30.27,SSE,159,0.0,1.0,75,0.00,,,0.01,Wunderground v.1.15,2013-01-21 05:34:00,
2013-01-20 21:39:00,26.5,20.0,30.27,SSE,159,0.0,1.0,76,0.00,,,0.01,Wunderground v.1.15,2013-01-21 05:39:00,
2013-01-20 21:45:00,26.4,19.9,30.28,SSE,159,0.0,1.0,76,0.00,,,0.01,Wunderground v.1.15,2013-01-21 05:45:00,
2013-01-20 21:50:00,26.4,19.9,30.28,SSE,159,0.0,1.0,76,0.00,,,0.01,Wunderground v.1.15,2013-01-21 05:50:00,
2013-01-20 21:55:00,26.3,19.8,30.28,SSE,159,0.0,1.0,76,0.00,,,0.01,Wunderground v.1.15,2013-01-21 05:55:00,
2013-01-20 21:59:00,26.5,20.0,30.28,SSE,159,0.0,1.0,76,0.00,,,0.01,Wunderground v.1.15,2013-01-21 05:59:00,
2013-01-20 22:04:00,26.6,19.7,30.27,SSE,159,0.0,1.0,75,0.00,,,0.01,Wunderground v.1.15,2013-01-21 06:04:00,
2013-01-20 22:10:00,26.6,19.7,30.27,SSE,159,0.0,1.0,75,0.00,,,0.01,Wunderground v.1.15,2013-01-21 06:10:00,
2013-01-20 22:15:00,26.5,20.0,30.27,SSE,159,0.0,1.0,76,0.00,,,0.01,Wunderground v.1.15,2013-01-21 06:15:00,
2013-01-20 22:20:00,26.3,19.8,30.27,SSE,159,0.0,1.0,76,0.00,,,0.01,Wunderground v.1.15,2013-01-21 06:20:00,
2013-01-20 22:24:00,26.1,19.6,30.27,SSE,160,0.0,1.0,76,0.00,,,0.01,Wunderground v.1.15,2013-01-21 06:24:00,
2013-01-20 22:29:00,25.8,19.3,30.27,SSE,159,0.0,1.0,76,0.00,,,0.01,Wunderground v.1.15,2013-01-21 06:29:00,
2013-01-20 22:35:00,25.8,19.6,30.27,SSE,160,0.0,1.0,77,0.00,,,0.01,Wunderground v.1.15,2013-01-21 06:35:00,
2013-01-20 22:40:00,25.7,19.2,30.27,SSE,159,0.0,1.0,76,0.00,,,0.01,Wunderground v.1.15,2013-01-21 06:40:00,
2013-01-20 22:45:00,25.6,19.1,30.27,SSE,159,0.0,1.0,76,0.00,,,0.01,Wunderground v.1.15,2013-01-21 06:45:00,
2013-01-20 22:49:00,25.5,19.0,30.27,SSE,155,0.0,1.0,76,0.00,,,0.01,Wunderground v.1.15,2013-01-21 06:49:00,
2013-01-20 22:54:00,25.5,19.0,30.27,SSE,155,0.0,1.0,76,0.00,,,0.01,Wunderground v.1.15,2013-01-21 06:54:00,
2013-01-20 23:00:00,25.6,19.1,30.27,SSE,155,0.0,1.0,76,0.00,,,0.01,Wunderground v.1.15,2013-01-21 07:00:00,
2013-01-20 23:05:00,25.7,19.2,30.27,SE,146,0.0,1.0,76,0.00,,,0.01,Wunderground v.1.15,2013-01-21 07:05:00,
2013-01-20 23:09:00,25.8,19.3,30.27,SE,139,0.0,1.0,76,0.00,,,0.01,Wunderground v.1.15,2013-01-21 07:09:00,
2013-01-20 23:14:00,25.7,19.2,30.27,SE,139,0.0,1.0,76,0.00,,,0.01,Wunderground v.1.15,2013-01-21 07:14:00,
2013-01-20 23:19:00,25.6,19.1,30.27,SE,139,0.0,1.0,76,0.00,,,0.01,Wunderground v.1.15,2013-01-21 07:19:00,
2013-01-20 23:25:00,25.4,19.2,30.27,SE,140,0.0,1.0,77,0.00,,,0.01,Wunderground v.1.15,2013-01-21 07:25:00,
2013-01-20 23:30:00,25.4,19.2,30.27,SW,236,0.0,1.0,77,0.00,,,0.01,Wunderground v.1.15,2013-01-21 07:30:00,
2013-01-20 23:35:00,25.3,19.1,30.27,SW,236,0.0,1.0,77,0.00,,,0.01,Wunderground v.1.15,2013-01-21 07:35:00,
2013-01-20 23:44:00,24.9,18.7,30.27,SW,233,0.0,1.0,77,0.00,,,0.01,Wunderground v.1.15,2013-01-21 07:44:00,
2013-01-20 23:50:00,24.8,18.6,30.27,SW,233,0.0,1.0,77,0.00,,,0.01,Wunderground v.1.15,2013-01-21 07:50:00,
2013-01-20 23:55:00,25.0,18.8,30.27,SW,233,0.0,1.0,77,0.00,,,0.01,Wunderground v.1.15,2013-01-21 07:55:00,